NOAA 16 DEB, 42415

Orbit data source: Space-Track

NOAA 16 DEB, 42415 is space debris in SSO originally from a launch on Thu, 21 Sep 2000 UTC launched from the Air Force Western Test Range (AFWTR). Debris objects in space refer to the collection of defunct objects orbiting the Earth. Examples of debris include non-operational satellites, rocket bodies, and fragments generated from explosions, collisions, or faulty payload assembly.

Loading next visibility...
Identifier
42415, 2000-055TK
Orbit
SSO
Country
Flag of USUS
Related business
Manufacturer
Unknown
Mission
Spacecraft
Bus & Motor
Unknown
Mass
Unknown
Launch date (UTC)
2000-09-21 (25 years ago)
Launch vehicle
Unknown
Launch site
Air Force Western Test Range (AFWTR)
Object type
Payload
Rocket body
Debris
Shape & HBR
Unknown shape, 0.1 m
Radar Cross Section
Small (<0.1 m²)

Expand to show TLE details & history
Last TLE update: 21 hours ago

TLE from 21 hours ago
0 NOAA 16 DEB
1 42415U 00055TK  25292.66930494  .00014128  00000-0  42858-2 0  9992
2 42415  99.0236 103.5668 0024625 135.0916 225.2269 14.42128390499666
Epoch: 2025-10-19T16:03Z
TLE epoch observation values (Epoch: 2025-10-19T16:03:47.946Z)
Latitude
-0.00007°
Longitude
-165.76561°
Altitude
766.799 km
Speed
7.464 km/s
True Right ascension
06h 54m 16s
True Declination
0° 00' 00"
Sunlit
Object was in daylight at epoch
Visualization orbit readout
Latitude
Unknown
Longitude
Unknown
Altitude
Unknown
Speed
Unknown
Apparent Right ascension
Unknown
Apparent Declination
Unknown
Sunlit
N/A
Visualization observer readout
Local Sidereal Time
08:28:38
Azimuth
Unknown
Elevation
Unknown
Doppler factor
Unknown
Orbital elements
Apogee altitude
766.169 km
Perigee altitude
731.07 km
Semi-major axis
7,126.756 km
Eccentricity
0.00246
Inclination
99.0236°
RAAN
103.5668°
Arg. of periapsis
135.0916°
True anomaly
225.02701°
Mean anomaly
225.2269°
Eccentric anomaly
225.12691°
Mean motion
3.60749 °/min
Orbital period
99.79 mins
BSTAR
0.0042858
Loading maneuver chart data...
Computing Atmospheric mass density...
Loading historical data...
Loading historical data...
Loading historical data...
Loading historical data...
Loading historical data...
Loading historical data...
Loading historical data...

Documentation

Showing up to 5 results
|